Lid_Strength_Index
16 16 17 17 17 16 16 16 16 19 18 17 18 16 14 14 14 15 15 14 13 12 12 12 11 11 10 10 9 9 9 8 8 8 7 6 6 5
17 18 18 18 18 18 17 17 17 16 18 17 17 15 14 14 14 15 15 15 15 14 13 12 12 11 11 10 10 10 10 9 8 8 7 6 5 4
18 19 19 18 19 18 18 18 17 17 18 17 15 15 15 15 15 15 15 16 16 15 14 12 12 12 12 11 11 10 10 10 9 8 6 6 5 4
19 20 20 19 19 19 18 18 18 17 16 17 16 15 16 16 16 16 16 16 16 16 14 13 13 13 13 12 12 11 11 11 9 8 7 6 5 3
20 20 20 20 20 19 18 18 16 16 16 16 17 16 16 16 17 17 17 17 16 15 15 14 14 13 13 13 13 13 12 12 10 8 7 6 4 3
19 19 19 18 18 18 17 16 16 16 16 17 18 18 17 17 18 19 19 18 18 17 17 16 15 15 15 14 14 14 13 12 10 8 7 5 4 3
19 18 18 17 15 15 16 16 16 17 17 18 19 19 19 19 20 19 20 19 19 18 19 18 18 18 18 16 16 15 12 10 9 7 6 5 4 4
19 18 17 16 15 13 13 14 15 17 18 19 19 20 20 20 19 20 20 21 22 18 20 21 19 20 19 18 15 12 11 9 8 7 6 5 5 5
19 18 18 16 15 15 15 15 15 15 16 18 20 20 20 20 19 19 20 21 22 20 21 23 20 20 19 17 14 12 10 9 8 7 6 6 6 6
18 17 16 16 16 16 17 17 18 18 18 17 18 18 18 17 18 19 21 22 23 22 21 25 21 21 19 18 14 12 11 9 8 7 7 7 7 7
17 16 16 16 15 15 17 18 19 19 17 17 17 17 17 17 18 20 23 25 25 23 22 23 22 22 20 19 17 14 12 10 9 9 8 8 8 8
17 16 15 16 15 15 18 19 20 20 20 20 20 21 21 21 20 21 22 25 25 26 23 23 22 23 24 21 18 17 16 13 11 10 9 9 9 10
18 18 17 15 16 16 18 19 19 20 21 23 24 24 23 23 22 22 22 23 25 25 21 21 22 23 23 23 20 17 16 16 15 13 12 11 11 10
19 19 18 16 17 18 19 18 19 23 25 25 25 25 24 24 23 22 22 22 21 22 20 21 24 23 24 24 23 18 17 16 15 15 15 14 12 11
18 18 18 18 20 21 20 20 23 25 25 27 26 25 24 23 23 24 24 23 23 22 21 22 23 23 23 24 23 21 19 18 16 16 16 16 16 15
19 21 20 21 21 22 24 24 25 25 26 26 26 25 25 26 25 24 25 24 25 24 22 22 22 22 23 22 21 21 19 21 17 17 17 16 16 16
26 26 25 25 25 25 25 26 26 26 27 26 26 26 26 25 25 24 25 26 27 26 25 23 22 22 22 22 23 20 20 19 17 18 18 19 17 16
27 26 26 27 27 27 27 26 26 26 25 26 26 26 26 26 26 26 26 27 27 26 26 24 24 25 24 23 18 20 19 19 17 17 18 20 20 17
27 29 27 27 27 27 27 26 26 25 25 27 26 26 26 26 27 27 27 27 27 27 26 25 26 26 27 27 19 14 18 17 19 19 19 19 20 19
29 28 28 28 28 27 27 27 26 26 26 26 26 26 27 27 28 28 28 29 28 27 27 26 26 25 26 25 24 20 15 18 19 20 19 18 17 14
29 30 30 28 28 27 27 27 27 27 26 27 27 27 27 28 29 29 29 29 28 28 28 26 23 21 21 22 25 23 19 14 15 18 18 19 21 20
30 30 28 27 27 28 28 27 27 27 26 27 27 27 27 28 29 29 29 28 27 26 25 23 22 23 23 24 25 23 22 19 17 16 14 15 19 23
30 28 28 28 27 28 28 28 28 27 26 26 26 27 27 29 29 28 28 27 26 26 25 25 23 22 24 24 24 24 23 22 21 21 20 14 14 13